カタログに戻る

BREEZE-M R/B

運用中HEO
NORAD 37934·ROCKET BODY·🇷🇺 Russia

打ち上げ Nov 25, 2011 から Baikonur Cosmodrome

Loading…

次のパス (今後24時間)

TLE

最新Source: Space-Track

元期: Sep 14, 2026, 08:37 UTC

1 37934U 11069B   26257.35957174 -.00000136  00000-0  00000-0 0  9997
2 37934   1.5579  30.6842 3809578 343.2977  50.8065  1.71597332 91555

AllMySatでBREEZE-M R/Bをリアルタイム追跡

Download on the App Store